Tracking 31027 objects as of 19-Jul-2025
HD Live streaming from Space Station
objects crossing your sky now

COSMOS 2354

Track COSMOS 2354 now!
10-day predictions
COSMOS 2354 is classified as:


NORAD ID: 25365
Int'l Code: 1998-036C
Perigee: 1,315.3 km
Apogee: 1,876.5 km
Inclination: 82.6 °
Period: 117.9 minutes
Semi major axis: 7966 km
RCS: 0.9905 m2 (medium)
Launch date: June 15, 1998
Source: Commonwealth of Independent States (former USSR) (CIS)
Launch site: PLESETSK MISSILE AND SPACE COMPLEX (PKMTR)

Satellites have a single simultaneous earth-space and space-earth channel.
Your satellite tracking list
CREW DRAGON DEMO-2 DEB
Track 1 satellite(s)




NASA's NSSDC Master Catalog

Two Line Element Set (TLE):
1 25365U 98036C   25199.70452229  .00000015  00000-0  56526-4 0  9998
2 25365  82.5830 184.5481 0352253 217.6933 318.6736 12.20867729207378
Source of the keplerian elements: AFSPC